Overview Statistics Trail Chart Weather Telemetry Raw packets
 

This is the latest recevied weather packets stored in our database for station/object OK1FET-5. If no packets are shown the sender has not sent any weather packets the latest 10 day(s).

<< 21 22 23 24 25 26 27 >>
Time Temp. Humidity Pressure Rain* Wind** Luminosity Snow
1788245901 21.67° C 57% 1021.3 hPa - - - -
1788245305 21.11° C 58% 1021.3 hPa - - - -
1788244709 20.56° C 60% 1021.3 hPa - - - -
1788243518 20.56° C 61% 1021.3 hPa - - - -
1788242922 20° C 62% 1021.2 hPa - - - -
1788242326 19.44° C 63% 1021.1 hPa - - - -
1788241135 18.33° C 67% 1021 hPa - - - -
1788240539 17.78° C 69% 1021 hPa - - - -
1788239943 17.22° C 70% 1020.9 hPa - - - -
1788239347 16.67° C 73% 1020.8 hPa - - - -
1788238752 15.56° C 76% 1020.8 hPa - - - -
1788238156 14.44° C 78% 1020.7 hPa - - - -
1788237560 13.89° C 79% 1020.7 hPa - - - -
1788236964 12.78° C 80% 1020.5 hPa - - - -
1788236369 12.78° C 81% 1020.5 hPa - - - -
1788235773 12.78° C 81% 1020.5 hPa - - - -
1788235177 12.78° C 81% 1020.5 hPa - - - -
1788234582 12.78° C 81% 1020.3 hPa - - - -
1788233986 12.78° C 81% 1020.2 hPa - - - -
1788233390 12.78° C 80% 1020.2 hPa - - - -
1788232794 13.33° C 80% 1020.1 hPa - - - -
1788232199 13.33° C 80% 1020.2 hPa - - - -
1788231603 13.33° C 80% 1020.1 hPa - - - -
1788231007 13.33° C 79% 1020.2 hPa - - - -
1788230411 13.33° C 78% 1020.1 hPa - - - -

* Rain since midnight (hover to see other rain measurements)
** Current wind speed in m/s (hover to see current wind gust speed)